Volver al catálogo

COSMOS 1317 DEB

LostHEO
NORAD 14734·DEBRIS·🇷🇺 Russia

Lanzado Oct 31, 1981 desde Plesetsk Cosmodrome

Loading…

Próximos Pases (próximas 24 horas)

TLE

ObsoletoSource: Space-Track

Época: Oct 27, 2025, 07:24 UTC

1 14734U 81108E   25300.30899178  .00000055  00000-0  00000-0 0  9992
2 14734  72.1277  74.0365 4709127 323.9377  15.4524  2.01758192278953

Sigue COSMOS 1317 DEB en tiempo real con AllMySat

Download on the App Store